Simultaneous Nadir Overpasses (SNOs) Predictions

Prediction of SNOs between LANDSAT-8 and NOAA-19 Satellite Orbit:

Table of predicted SNOs for the next 14.0 days since TLE Epoch: 6/18/2016
Index Date (LANDSAT-8) Time (LANDSAT-8) Lat,Lon (LANDSAT-8) SZA (LANDSAT-8 ) Date (NOAA-19) Time (NOAA-19) Lat,Lon (NOAA-19) SZA (NOAA-19 ) Distance(km) Time Diff (sec)
1 06/20/2016 05:17:48 74.72, 105.32 51.25 06/20/2016 05:17:36 74.70, 105.42 51.24 3.52 12
2 06/20/2016 06:07:17 -74.64, -87.23 128.83 06/20/2016 06:08:30 -74.60, -87.02 128.87 8.10 73
3 06/22/2016 10:01:58 75.17, 35.42 51.73 06/22/2016 10:00:50 75.23, 33.11 51.74 66.07 68
4 06/22/2016 10:51:34 -74.74,-158.05 128.72 06/22/2016 10:51:35 -74.73,-158.10 128.74 2.57 1
5 06/24/2016 15:35:52 -74.79, 130.99 128.64 06/24/2016 15:34:39 -74.81, 130.94 128.62 2.77 73
6 06/24/2016 16:25:19 74.71, -61.57 51.29 06/24/2016 16:25:43 74.70, -61.50 51.28 2.61 24
7 06/26/2016 21:09:36 74.80,-132.41 51.45 06/26/2016 21:08:47 74.77,-132.44 51.42 3.29 49
8 06/26/2016 21:59:05 -74.74, 35.06 128.62 06/26/2016 21:59:41 -74.71, 35.02 128.64 3.41 36
9 06/29/2016 02:43:23 -74.78, -35.91 128.47 06/29/2016 02:42:45 -74.80, -35.96 128.45 3.01 38
10 06/29/2016 03:32:50 74.69, 131.52 51.44 06/29/2016 03:33:50 74.71, 131.52 51.47 2.42 60
11 07/01/2016 08:17:06 74.78, 60.65 51.67 07/01/2016 08:16:52 74.76, 60.69 51.65 2.48 14
